Change the Weather History Date:

Sunday, March 23, 2014

  Actual Average Record
Temperature  
Mean Temperature 26 °F 43 °F  
Max Temperature 42 °F 56 °F 88 °F (1910)
Min Temperature 9 °F 30 °F 7 °F (1965)
Degree Days  
Heating Degree Days 39 22  
Month to date heating degree days 691 608  
Since 1 July heating degree days 5808 5311  
Cooling Degree Days 0 0  
Month to date cooling degree days 0 0  
Year to date cooling degree days 0 0  
Moisture  
Dew Point 7 °F    
Average Humidity 49    
Maximum Humidity 73    
Minimum Humidity 25    
Precipitation  
Precipitation 0.00 in 0.07 in 1.41 in (1937)
Month to date precipitation 0.06 1.31  
Year to date precipitation 0.92 2.72  
Snow  
Snow 0.00 in 0.10 in - ()
Month to date snowfall 0.7 3.8  
Since 1 July snowfall 17.7 23.5  
Snow Depth 0.00 in    
Sea Level Pressure  
Sea Level Pressure 30.48 in    
Wind  
Wind Speed 7 mph (SSE)    
Max Wind Speed 15 mph    
Max Gust Speed 21 mph    
Visibility 10 miles    
Events      
T = Trace of Precipitation, MM = Missing Value Source: NWS Daily Summary

Daily Weather History Graph

Daily Weather History Graph

Search for Another Location

Airport or City:

Trip Planner

Search our weather history database for the weather conditions in past years. The results will help you decide how hot, cold, wet, or windy it might be!

Date:

Astronomy

Mar. 23, 2014 Rise Set
Actual Time 7:25 AM CDT 7:42 PM CDT
Civil Twilight 6:57 AM CDT 8:09 PM CDT
Nautical Twilight 6:25 AM CDT 8:42 PM CDT
Astronomical Twilight 5:53 AM CDT 9:15 PM CDT
Moon 2:02 AM CDT (3/23) 12:05 PM CDT (3/23)
Length of Visible Light 13h 11m
Length of Day
12h 17m
Waning Gibbous, 54% of the Moon is Illuminated
Mar 23
Waning Gibbous
Mar 23
Last Quarter
Mar 30
New
Apr 7
First Quarter
Apr 15
Full

Hourly Weather History & Observations

Time (CDT) Temp. Windchill Dew Point Humidity Pressure Visibility Wind Dir Wind Speed Gust Speed Precip Events Conditions
12:54 AM 24.1 °F 15.2 °F 3.9 °F 42% 30.59 in 10.0 mi NNW 8.1 mph - N/A   Scattered Clouds
1:54 AM 21.0 °F 12.4 °F 3.9 °F 48% 30.60 in 10.0 mi NNW 6.9 mph - N/A   Clear
2:54 AM 21.0 °F 12.4 °F 5.0 °F 50% 30.59 in 10.0 mi NNW 6.9 mph - N/A   Clear
3:54 AM 15.1 °F 5.2 °F 3.9 °F 61% 30.59 in 10.0 mi NNW 6.9 mph - N/A   Clear
4:54 AM 10.9 °F 1.4 °F 3.0 °F 70% 30.59 in 10.0 mi North 5.8 mph - N/A   Clear
5:54 AM 10.0 °F 1.8 °F 3.0 °F 73% 30.60 in 10.0 mi NNW 4.6 mph - N/A   Clear
6:54 AM 12.0 °F - 3.9 °F 70% 30.60 in 10.0 mi Calm Calm - N/A   Clear
7:54 AM 14.0 °F - 5.0 °F 67% 30.61 in 10.0 mi Calm Calm - N/A   Clear
8:54 AM 19.9 °F - 7.0 °F 57% 30.60 in 10.0 mi Calm Calm - N/A   Clear
9:54 AM 25.0 °F - 7.0 °F 46% 30.60 in 10.0 mi Calm Calm - N/A   Clear
10:54 AM 30.0 °F - 7.0 °F 38% 30.58 in 10.0 mi Calm Calm - N/A   Clear
11:54 AM 30.9 °F 24.3 °F 6.1 °F 35% 30.56 in 10.0 mi ESE 6.9 mph - N/A   Clear
12:54 PM 36.0 °F 33.3 °F 6.1 °F 29% 30.53 in 10.0 mi Variable 3.5 mph - N/A   Clear
1:54 PM 37.0 °F 30.4 °F 7.0 °F 29% 30.48 in 10.0 mi SE 9.2 mph - N/A   Clear
2:54 PM 39.0 °F 32.3 °F 7.0 °F 27% 30.43 in 10.0 mi South 10.4 mph - N/A   Clear
3:54 PM 39.9 °F 32.9 °F 8.1 °F 27% 30.39 in 10.0 mi SSE 11.5 mph - N/A   Clear
4:54 PM 41.0 °F 38.0 °F 8.1 °F 26% 30.36 in 10.0 mi South 4.6 mph - N/A   Clear
5:54 PM 41.0 °F 35.8 °F 9.0 °F 27% 30.33 in 10.0 mi South 8.1 mph - N/A   Clear
6:54 PM 39.9 °F 33.9 °F 10.0 °F 29% 30.32 in 10.0 mi South 9.2 mph - N/A   Clear
7:54 PM 37.0 °F 30.4 °F 10.9 °F 34% 30.31 in 10.0 mi SSE 9.2 mph - N/A   Overcast
8:54 PM 37.9 °F 32.1 °F 10.9 °F 33% 30.31 in 10.0 mi SSE 8.1 mph - N/A   Overcast
9:54 PM 35.1 °F 27.4 °F 10.0 °F 35% 30.33 in 7.0 mi SSE 10.4 mph - N/A   Overcast
10:54 PM 34.0 °F 24.6 °F 10.0 °F 37% 30.32 in 10.0 mi SE 13.8 mph - N/A   Clear
11:54 PM 33.1 °F 23.9 °F 9.0 °F 37% 30.32 in 10.0 mi SE 12.7 mph - N/A   Clear